User: anonymous   Login
Location: Prague
(50.0830°N, 14.4670°E)
Time: 20:14:34
(UTC+01:00)
Language:

XW-2C - Orbit

View from above orbital plane
View from above orbital plane
View from above satellite
View from above satellite

Ground track
Ground track

The orbit data is extracted from the following two-line orbital elements,

1 40906U 15049H   21341.52000081  .00002081  00000-0  10771-3 0  9995
2 40906  97.4903 341.8138 0013064 311.2622 166.4529 15.17279015343801
Epoch (UTC): 07 December 2021 12:28:48
Eccentricity: 0.0013064
inclination: 97.4903°
perigee height: 505 km
apogee height: 523 km
right ascension of ascending node: 341.8138°
argument of perigee: 311.2622°
revolutions per day: 15.17279015
mean anomaly at epoch: 166.4529°
orbit number at epoch: 34380

The dashed part of the orbit path shows where the satellite is in the earth's shadow,  

DLR